Doha, Qatar

4:36 AM AST on September 26, 2016 (GMT +0300)
Doha International

Weather History for OTBD - December, 2012

Change the Weather History Date:

Friday, December 21, 2012

  Actual Average Record
Temperature  
Mean Temperature 72 °F -  
Max Temperature 79 °F 74 °F 86 °F (1998)
Min Temperature 66 °F 60 °F 57 °F (2006)
Cooling Degree Days 8    
Growing Degree Days 22 (Base 50)    
Moisture  
Dew Point 65 °F    
Average Humidity 79    
Maximum Humidity 94    
Minimum Humidity 54    
Precipitation  
Precipitation 0.00 in - - ()
Sea Level Pressure  
Sea Level Pressure 30.01 in    
Wind  
Wind Speed 3 mph ()    
Max Wind Speed 9 mph    
Max Gust Speed -    
Visibility 5.3 miles    
Events      
Averages and records for this station are not official NWS values.
T = Trace of Precipitation, MM = Missing Value Source: Averaged Metar Reports

Daily Weather History Graph

Daily Weather History Graph

Search for Another Location

Airport or City:

Trip Planner

Search our weather history database for the weather conditions in past years. The results will help you decide how hot, cold, wet, or windy it might be!

Date:

Astronomy

Dec. 21, 2012 Rise Set
Actual Time 6:14 AM AST 4:48 PM AST
Civil Twilight 5:49 AM AST 5:14 PM AST
Nautical Twilight 5:21 AM AST 5:42 PM AST
Astronomical Twilight 4:53 AM AST 6:10 PM AST
Moon 12:00 PM AST (12/21) 12:05 AM AST (12/21)
Length of Visible Light 11h 24m
Length of Day
10h 33m
First Quarter, 61% of the Moon is Illuminated
Dec 21
First Quarter
Dec 28
Full
Jan 5
Last Quarter
Jan 11
New
Jan 19
First Quarter

Hourly Weather History & Observations

Time (AST) Temp. Dew Point Humidity Pressure Visibility Wind Dir Wind Speed Gust Speed Precip Events Conditions
12:00 AM 69.8 °F 66.2 °F 88% 30.01 in - ENE 3.5 mph - N/A   Clear
12:30 AM 69.8 °F 66.2 °F 88% 30.01 in - Variable 2.3 mph - N/A   Clear
1:00 AM 69.8 °F 66.2 °F 88% 30.01 in - Calm Calm - N/A   Clear
1:30 AM 68.0 °F 64.4 °F 88% 30.01 in - Calm Calm - N/A   Clear
2:00 AM 68.0 °F 64.4 °F 88% 30.01 in - Variable 1.2 mph - N/A   Clear
2:30 AM 68.0 °F 64.4 °F 88% 30.01 in - Calm Calm - N/A   Clear
3:00 AM 68 °F 64 °F 82% 30.01 in 6 mi Calm Calm - -  
3:00 AM 68.0 °F 64.4 °F 88% 30.01 in - Calm Calm - N/A   Clear
3:30 AM 68.0 °F 64.4 °F 88% 30.01 in - Variable 2.3 mph - N/A   Clear
4:00 AM 68.0 °F 62.6 °F 83% 29.98 in 5.6 mi Variable 2.3 mph - N/A   Unknown
4:30 AM 68.0 °F 62.6 °F 83% 29.98 in 5.0 mi Calm Calm - N/A   Unknown
5:00 AM 66.2 °F 62.6 °F 88% 29.98 in 5.0 mi Variable 1.2 mph - N/A   Unknown
5:30 AM 66.2 °F 62.6 °F 88% 30.01 in 5.0 mi Variable 1.2 mph - N/A   Unknown
6:00 AM 66.2 °F 62.6 °F 88% 30.01 in 5.0 mi Calm Calm - N/A   Unknown
6:30 AM 66.2 °F 62.6 °F 88% 30.04 in 5.0 mi Variable 1.2 mph - N/A   Unknown
7:00 AM 68.0 °F 64.4 °F 88% 30.04 in 5.0 mi Variable 1.2 mph - N/A   Unknown
7:30 AM 69.8 °F 64.4 °F 83% 30.04 in 5.0 mi Calm Calm - N/A   Unknown
8:00 AM 71.6 °F 64.4 °F 78% 30.04 in 5.0 mi Calm Calm - N/A   Unknown
9:00 AM 75 °F 65 °F 63% 30.06 in 6 mi SSE 3.5 mph - -   Haze
9:00 AM 75.2 °F 64.4 °F 69% 30.04 in 5.6 mi SSE 3.5 mph - N/A   Unknown
9:30 AM 75.2 °F 66.2 °F 73% 30.04 in - SE 4.6 mph - N/A   Clear
10:00 AM 75.2 °F 64.4 °F 69% 30.04 in - SE 6.9 mph - N/A   Clear
10:30 AM 77.0 °F 66.2 °F 69% 30.04 in - SE 4.6 mph - N/A   Clear
11:00 AM 77.0 °F 64.4 °F 65% 30.04 in - SE 4.6 mph - N/A   Clear
11:30 AM 77.0 °F 64.4 °F 65% 30.01 in - South 4.6 mph - N/A   Clear
12:00 PM 78.8 °F 60.8 °F 54% 30.01 in 5.6 mi South 4.6 mph - N/A   Unknown
12:30 PM 78.8 °F 64.4 °F 61% 29.98 in - East 6.9 mph - N/A   Clear
1:00 PM 78.8 °F 62.6 °F 57% 29.98 in - East 5.8 mph - N/A   Clear
1:30 PM 77.0 °F 62.6 °F 61% 29.98 in - East 8.1 mph - N/A   Clear
2:00 PM 77.0 °F 62.6 °F 61% 29.98 in - East 8.1 mph - N/A   Clear
2:30 PM 77.0 °F 64.4 °F 65% 29.95 in - East 9.2 mph - N/A   Clear
3:00 PM 76 °F 65 °F 62% 29.97 in 6 mi East 9.2 mph - -   Scattered Clouds
3:00 PM 77.0 °F 66.2 °F 69% 29.95 in - East 9.2 mph - N/A   Clear
4:00 PM 75.2 °F 66.2 °F 73% 29.98 in - East 8.1 mph - N/A   Clear
4:30 PM 73.4 °F 66.2 °F 78% 29.98 in - ESE 8.1 mph - N/A   Clear
5:00 PM 73.4 °F 66.2 °F 78% 29.98 in - ESE 5.8 mph - N/A   Clear
5:30 PM 73.4 °F 66.2 °F 78% 29.98 in - East 4.6 mph - N/A   Clear
6:00 PM 71.6 °F 66.2 °F 83% 29.98 in - East 5.8 mph - N/A   Clear
6:30 PM 71.6 °F 66.2 °F 83% 30.01 in - East 6.9 mph - N/A   Clear
7:00 PM 71.6 °F 66.2 °F 83% 30.01 in - East 5.8 mph - N/A   Clear
7:30 PM 71.6 °F 66.2 °F 83% 30.01 in - East 5.8 mph - N/A   Clear
8:00 PM 71.6 °F 66.2 °F 83% 30.01 in - ESE 4.6 mph - N/A   Clear
9:00 PM 71 °F 67 °F 84% 30.04 in 6 mi East 3.5 mph - -  
9:00 PM 69.8 °F 68.0 °F 94% 30.04 in - East 3.5 mph - N/A   Clear
9:30 PM 69.8 °F 68.0 °F 94% 30.04 in - ESE 5.8 mph - N/A   Clear
10:00 PM 69.8 °F 66.2 °F 88% 30.04 in 5.0 mi East 3.5 mph - N/A   Unknown
10:30 PM 69.8 °F 68.0 °F 94% 30.04 in 5.0 mi East 3.5 mph - N/A   Unknown
11:00 PM 69.8 °F 66.2 °F 88% 30.01 in 5.0 mi East 3.5 mph - N/A   Unknown
11:30 PM 69.8 °F 66.2 °F 88% 30.01 in 5.0 mi ENE 3.5 mph - N/A   Unknown